Find Starlink 1513

NORAD ID: 45786 Int'l Des: 2020-038 Owner: SPXS Country: US Constellation: starlink operational
LEOCIRCULAR

Live Position

Loading 3D Globe...

About Starlink 1513

Description loading...

Upcoming Passes

Passes for default location (London). Set your location on the main map for personalized predictions.

Altitude History

Loading altitude history...

Two-Line Element Set

1 45786U 20038BJ 26107.00002315 -.00011174 00000-0 -34879-3 0 9990
2 45786 53.1593 13.1874 0001426 87.9378 115.2757 15.31703133 5850
Epoch: Apr 17, 2026 • Age: 10 hours

Current Status

Altitude 476.3 km
Velocity 7.63 km/s
Sub-Earth Point 53.10°N, 91.73°E
Launch Date Jun 13, 2020
Age 5.8 years
Type internet

Technical Details

Classification Payload
Mass 260.00 kg
Dry Mass 248.00 kg
Total Mass 260.00 kg
Length 0.20 m
Diameter 2.80 m
Span 9.00 m
Shape Box + pan
Manufacturer SPXS
Bus Type Starlink
Phase Status In Orbit
Owner/State SPXS/US

Most Searched